Location: Little Italy
(37.8008°N, 122.4108°W)
Time: 21:30:00
(UTC+00:00)

Cosmos 1697 Rocket - Pass Details

Date: 29 October 2020
Orbit: 831 x 845 km, 71.0° (Epoch: 24 November)

Event Time Altitude Azimuth Distance (km) Brightness Sun altitude
Exits shadow 12:32:07 30° 336° (NNW) 1,470 3.7 -24.3°
Maximum altitude 12:35:03 86° 249° (WSW) 851 2.6 -23.7°
Drops below altitude 10° 12:40:42 10° 161° (SSE) 2,456 5.3 -22.6°
Sets 12:43:07 0° 161° (SSE) 3,387 6.1 -22.1°
